TimeWET,TemperatureF,Dew PointF,Humidity,Sea Level PressureIn,VisibilityMPH,Wind Direction,Wind SpeedMPH,Gust SpeedMPH,PrecipitationIn,Events,Conditions,WindDirDegrees,DateUTC
12:00 AM,58,56,90,29.53,4,Calm,Calm,,,,Partly Cloudy,,2012-10-31 00:00:00
12:00 AM,57.2,55.4,94,29.50,3.7,Calm,Calm,-,N/A,,Mostly Cloudy,0,2012-10-31 00:00:00
12:30 AM,57.2,55.4,94,29.50,5.0,Calm,Calm,-,N/A,,Mostly Cloudy,0,2012-10-31 00:30:00
1:00 AM,57.2,55.4,94,29.53,5.0,ENE,2.3,-,N/A,,Mostly Cloudy,60,2012-10-31 01:00:00
1:30 AM,55.4,53.6,94,29.53,5.0,North,3.5,-,N/A,,Mostly Cloudy,350,2012-10-31 01:30:00
2:00 AM,55.4,53.6,94,29.53,-9999.0,North,5.8,-,N/A,,Unknown,350,2012-10-31 02:00:00
2:30 AM,55.4,53.6,94,29.56,-9999.0,North,3.5,-,N/A,,Unknown,350,2012-10-31 02:30:00
3:00 AM,53,51,92,29.57,,North,2.3,,,,,10,2012-10-31 03:00:00
3:00 AM,53.6,51.8,94,29.56,-9999.0,North,2.3,-,N/A,,Unknown,10,2012-10-31 03:00:00
3:30 AM,53.6,51.8,94,29.56,-9999.0,NNW,3.5,-,N/A,,Unknown,340,2012-10-31 03:30:00
4:00 AM,53.6,50.0,88,29.56,-9999.0,North,3.5,-,N/A,,Unknown,350,2012-10-31 04:00:00
4:30 AM,53.6,50.0,88,29.56,-9999.0,Calm,Calm,-,N/A,,Unknown,0,2012-10-31 04:30:00
5:00 AM,51.8,50.0,94,29.59,5.0,NNE,3.5,-,N/A,,Mostly Cloudy,30,2012-10-31 05:00:00
5:30 AM,53.6,51.8,94,29.59,5.0,Variable,1.2,-,N/A,,Mostly Cloudy,0,2012-10-31 05:30:00
6:00 AM,53,51,89,29.61,5,SE,5.8,,,,Mostly Cloudy,130,2012-10-31 06:00:00
6:00 AM,53.6,50.0,88,29.59,5.0,SE,5.8,-,N/A,,Mostly Cloudy,130,2012-10-31 06:00:00
6:30 AM,53.6,51.8,94,29.59,6.2,ESE,4.6,-,N/A,,Mostly Cloudy,120,2012-10-31 06:30:00
7:00 AM,53.6,51.8,94,29.62,6.2,Variable,2.3,-,N/A,,Mostly Cloudy,0,2012-10-31 07:00:00
7:30 AM,55.4,53.6,94,29.62,6.2,Calm,Calm,-,N/A,,Mostly Cloudy,0,2012-10-31 07:30:00
8:00 AM,57.2,55.4,94,29.65,6.2,Calm,Calm,-,N/A,,Scattered Clouds,0,2012-10-31 08:00:00
8:30 AM,59.0,57.2,94,29.65,6.2,Calm,Calm,-,N/A,,Scattered Clouds,0,2012-10-31 08:30:00
9:00 AM,62,56,77,29.68,6,SSW,2.3,,,,Scattered Clouds,200,2012-10-31 09:00:00
9:00 AM,62.6,57.2,82,29.65,6.2,Variable,2.3,-,N/A,,Scattered Clouds,0,2012-10-31 09:00:00
9:30 AM,62.6,57.2,82,29.68,6.2,SSW,6.9,-,N/A,,Scattered Clouds,210,2012-10-31 09:30:00
10:00 AM,64.4,57.2,77,29.68,6.2,SSW,6.9,-,N/A,,Scattered Clouds,200,2012-10-31 10:00:00
10:30 AM,66.2,55.4,68,29.68,6.2,SW,9.2,-,N/A,,Scattered Clouds,230,2012-10-31 10:30:00
11:00 AM,66.2,55.4,68,29.68,6.2,SW,9.2,-,N/A,,Scattered Clouds,230,2012-10-31 11:00:00
11:30 AM,68.0,55.4,64,29.68,6.2,SW,12.7,-,N/A,,Scattered Clouds,230,2012-10-31 11:30:00
12:00 PM,67,56,59,29.70,6,WSW,13.8,,,,Partly Cloudy,240,2012-10-31 12:00:00
12:00 PM,68.0,55.4,64,29.68,6.2,WSW,12.7,-,N/A,,Mostly Cloudy,250,2012-10-31 12:00:00
12:30 PM,68.0,55.4,64,29.68,6.2,WSW,11.5,-,N/A,,Mostly Cloudy,240,2012-10-31 12:30:00
1:00 PM,68.0,55.4,64,29.68,6.2,WSW,12.7,-,N/A,,Mostly Cloudy,250,2012-10-31 13:00:00
1:30 PM,68.0,55.4,64,29.65,6.2,WSW,11.5,-,N/A,,Mostly Cloudy,250,2012-10-31 13:30:00
2:00 PM,66.2,57.2,73,29.65,6.2,West,10.4,-,N/A,,Scattered Clouds,260,2012-10-31 14:00:00
2:30 PM,68.0,59.0,73,29.65,6.2,WSW,13.8,-,N/A,,Scattered Clouds,240,2012-10-31 14:30:00
3:00 PM,67,59,69,29.66,6,WSW,16.1,,,,Mostly Cloudy,240,2012-10-31 15:00:00
3:00 PM,68.0,59.0,73,29.65,6.2,WSW,16.1,-,N/A,,Scattered Clouds,240,2012-10-31 15:00:00
3:30 PM,66.2,59.0,78,29.65,6.2,WSW,13.8,-,N/A,,Scattered Clouds,240,2012-10-31 15:30:00
4:00 PM,66.2,55.4,68,29.65,6.2,WSW,13.8,-,N/A,,Scattered Clouds,250,2012-10-31 16:00:00
4:30 PM,64.4,53.6,68,29.68,6.2,West,16.1,-,N/A,,Scattered Clouds,260,2012-10-31 16:30:00
5:00 PM,64.4,53.6,68,29.68,6.2,West,13.8,-,N/A,,Mostly Cloudy,270,2012-10-31 17:00:00
5:30 PM,64.4,53.6,68,29.68,6.2,West,12.7,-,N/A,,Mostly Cloudy,280,2012-10-31 17:30:00
6:00 PM,64,55,66,29.69,6,WNW,9.2,,,,Mostly Cloudy,290,2012-10-31 18:00:00
6:00 PM,64.4,55.4,73,29.68,6.2,WNW,9.2,-,N/A,,Mostly Cloudy,290,2012-10-31 18:00:00
6:30 PM,64.4,55.4,73,29.68,6.2,West,8.1,-,N/A,,Mostly Cloudy,270,2012-10-31 18:30:00
7:00 PM,64.4,55.4,73,29.68,6.2,West,9.2,-,N/A,,Mostly Cloudy,270,2012-10-31 19:00:00
7:30 PM,64.4,55.4,73,29.68,6.2,WSW,9.2,-,N/A,,Mostly Cloudy,240,2012-10-31 19:30:00
8:00 PM,-9999,-9999,N/A,0.00,-9999.0,North,-9999.0,-,N/A,,Mostly Cloudy,0,2012-10-31 20:00:00
8:30 PM,64.4,57.2,77,29.68,6.2,SW,6.9,-,N/A,,Mostly Cloudy,230,2012-10-31 20:30:00
9:00 PM,64,57,71,29.70,6,SW,2.3,,,,Mostly Cloudy,230,2012-10-31 21:00:00
9:00 PM,64.4,57.2,77,29.68,6.2,Variable,2.3,-,N/A,,Mostly Cloudy,0,2012-10-31 21:00:00
9:30 PM,64.4,57.2,77,29.68,3.7,Calm,Calm,-,N/A,Rain,Light Rain,0,2012-10-31 21:30:00
10:00 PM,62.6,59.0,88,29.68,3.7,Variable,2.3,-,N/A,Rain,Light Rain,0,2012-10-31 22:00:00
10:30 PM,62.6,59.0,88,29.68,3.7,Variable,2.3,-,N/A,Rain,Light Rain,0,2012-10-31 22:30:00
11:00 PM,62.6,59.0,88,29.68,3.7,SE,2.3,-,N/A,Rain,Light Rain,140,2012-10-31 23:00:00
11:30 PM,62.6,59.0,88,29.68,3.7,NNE,3.5,-,N/A,Rain,Light Rain,20,2012-10-31 23:30:00